Location: Peebles
(55.6412°N, 3.1714°W)
Time: 13:43:30
(UTC+01:00)

FENGYUN 1C DEB - Pass Details

Date: 09 July 2022
Orbit: 774 x 850 km, 99.1° (Epoch: 16 August)

Event Time Altitude Azimuth Distance (km) Brightness Sun altitude
Rises 03:36:12 0° 92° (E) 3,352 ? -6.6°
Reaches altitude 10° 03:39:47 10° 67° (ENE) 2,440 ? -6.4°
Maximum altitude 03:42:16 13° 39° (NE) 2,218 ? -6.2°
Drops below altitude 10° 03:44:45 10° 12° (NNE) 2,465 ? -6.0°
Sets 03:48:24 0° 347° (NNW) 3,417 ? -5.7°
